Location: Unspecified
(48.2082°N, 0.0000°E)
Time: 03:22:54
(UTC+00:00)

Altair - Pass Details

Date: 24 June 2019
Orbit: 1501 x 1683 km, 47.2° (Epoch: 15 July)

Event Time Altitude Azimuth Distance (km) Brightness Sun altitude
Rises 21:42:56 0° 265° (W) 4,739 10.5 -11.9°
Reaches altitude 10° 21:45:57 10° 265° (W) 3,778 9.9 -12.1°
Maximum altitude 21:55:38 86° 179° (S) 1,633 7.6 -13.0°
Drops below altitude 10° 22:05:42 10° 92° (E) 3,916 9.3 -13.8°
Sets 22:08:53 0° 92° (E) 4,917 9.9 -14.0°
